EW3235 Weather Reports


Display with metric or nautical units.
time (UTC)temp
F
wind
direction
speed
MPH
gust
MPH
rain 1hr
in
rain 24hr
in
rain mn
in
humidity
%
barometer
mb
20171118060824 36 57 0.0 0.0 0.00 0.01 0.00 92 1023.5
20171118055307 37 57 0.0 1.0 0.00 0.01 0.00 92 1023.3
20171118054148 37 116 0.0 0.0 0.00 0.01 0.00 92 1023.2
20171118052359 37 136 0.0 0.0 0.00 0.01 0.00 92 1023.1
20171118051020 37 120 0.0 0.0 0.00 0.01 0.00 92 1022.9
20171118045325 38 246 0.0 1.0 0.00 0.03 0.00 92 1022.8
20171118043746 38 57 0.0 0.0 0.00 0.03 0.00 92 1022.6
20171118042514 39 78 0.0 0.0 0.00 0.03 0.00 92 1022.7
20171118041040 39 78 0.0 1.0 0.00 0.03 0.00 92 1022.6
20171118035858 39 47 0.0 1.0 0.00 0.04 0.00 92 1022.4
20171118034136 40 103 0.0 0.0 0.00 0.04 0.00 92 1022.0
20171118033523 40 236 0.0 3.0 0.00 0.04 0.00 92 1022.1
20171118030715 41 83 0.0 1.0 0.00 0.04 0.00 92 1022.3
20171118025223 42 163 0.0 0.0 0.00 0.04 0.00 92 1022.3
20171118023731 42 91 0.0 1.0 0.00 0.04 0.00 92 1022.3
20171118022242 43 98 0.0 0.0 0.00 0.04 0.00 91 1022.5
20171118020911 44 18 0.0 0.0 0.00 0.04 0.00 91 1022.5
20171118015532 44 98 0.0 0.0 0.00 0.04 0.00 90 1022.6
20171118013944 46 98 0.0 1.0 0.00 0.04 0.00 88 1022.4
20171118012207 47 319 0.0 0.0 0.00 0.04 0.00 84 1022.2
20171118010824 49 85 0.0 0.0 0.00 0.04 0.00 81 1022.1
20171118005240 51 82 0.0 1.0 0.00 0.04 0.00 74 1022.0
20171118003853 54 27 0.0 1.0 0.00 0.04 0.00 67 1021.9
20171118002314 59 93 0.0 4.0 0.00 0.04 0.00 45 1021.8
20171118000947 59 60 0.0 6.0 0.00 0.04 0.00 43 1021.8
20171117235254 60 43 1.0 6.0 0.00 0.04 0.00 41 1021.8
20171117234013 60 41 2.0 6.0 0.00 0.04 0.00 42 1021.8
20171117232843 61 360 1.0 5.0 0.00 0.04 0.00 44 1021.9
20171117230616 61 41 2.0 4.0 0.00 0.04 0.00 44 1021.8
20171117225521 61 1 2.0 4.0 0.00 0.04 0.00 47 1021.9
20171117223915 60 72 2.0 4.0 0.00 0.04 0.00 49 1021.8
20171117222337 60 319 0.0 5.0 0.00 0.04 0.00 49 1021.9
20171117220656 59 244 0.0 1.0 0.00 0.04 0.00 61 1021.8
20171117215111 59 331 0.0 2.0 0.00 0.04 0.00 59 1021.9
20171117213643 59 234 0.0 2.0 0.00 0.04 0.00 60 1021.9
20171117212048 59 207 0.0 1.0 0.00 0.04 0.00 62 1021.9
20171117211236 59 46 0.0 3.0 0.00 0.04 0.00 62 1022.0
20171117205023 59 131 0.0 1.0 0.00 0.05 0.00 68 1022.1
20171117203833 58 128 0.0 3.0 0.00 0.05 0.00 66 1022.1
20171117202052 58 243 0.0 1.0 0.00 0.05 0.00 72 1022.2
20171117200609 57 94 0.0 1.0 0.00 0.05 0.00 73 1022.4
20171117195825 56 50 0.0 2.0 0.00 0.06 0.00 71 1022.5
20171117193552 54 260 0.0 1.0 0.00 0.06 0.00 78 1022.6
20171117192032 53 314 0.0 1.0 0.00 0.06 0.00 85 1022.7
20171117190732 52 351 0.0 1.0 0.00 0.06 0.00 86 1022.8
20171117185138 51 345 0.0 2.0 0.00 0.06 0.00 88 1022.8
20171117183630 49 215 0.0 2.0 0.00 0.06 0.00 91 1022.9
20171117182036 48 319 0.0 0.0 0.00 0.06 0.00 93 1022.7
20171117180454 47 40 0.0 0.0 0.00 0.06 0.00 94 1022.6
20171117175322 47 357 0.0 0.0 0.00 0.06 0.00 94 1022.3
20171117173732 47 34 0.0 0.0 0.00 0.06 0.00 94 1022.2
20171117172025 47 72 0.0 2.0 0.00 0.06 0.00 94 1022.0
20171117170621 46 49 0.0 2.0 0.00 0.06 0.00 94 1021.7
20171117164935 45 59 1.0 2.0 0.00 0.06 0.00 94 1021.5
20171117163546 44 255 0.0 0.0 0.00 0.06 0.00 94 1021.4
20171117162958 44 103 0.0 0.0 0.00 0.06 0.00 94 1021.5
20171117160427 43 252 0.0 0.0 0.00 0.06 0.00 94 1021.1
20171117154949 42 229 0.0 0.0 0.00 0.06 0.00 94 1020.9
20171117154016 41 264 0.0 0.0 0.00 0.06 0.00 94 1020.7
20171117151937 41 84 0.0 2.0 0.00 0.06 0.00 94 1020.3
20171117150429 40 230 0.0 0.0 0.00 0.06 0.00 94 1019.9
20171117145147 40 230 0.0 0.0 0.00 0.06 0.00 93 1019.8
20171117143350 40 351 0.0 0.0 0.00 0.06 0.00 93 1019.9
20171117142010 41 351 0.0 0.0 0.00 0.06 0.00 93 1019.6
20171117140616 41 348 0.0 0.0 0.00 0.06 0.00 93 1019.3
20171117135037 41 348 0.0 0.0 0.00 0.07 0.00 93 1019.2
20171117133856 41 348 0.0 0.0 0.00 0.07 0.00 93 1018.9
20171117125055 42 348 0.0 0.0 0.00 0.08 0.00 93 1018.1
20171117122113 43 59 0.0 0.0 0.00 0.08 0.00 93 1017.5
20171117120339 44 59 0.0 0.0 0.00 0.08 0.00 93 1017.3
20171117114743 44 59 0.0 0.0 0.00 0.12 0.00 93 1017.0
20171117113916 44 59 0.0 0.0 0.00 0.12 0.00 93 1016.9
20171117111757 44 58 0.0 0.0 0.00 0.12 0.00 93 1016.7
20171117110346 44 58 0.0 0.0 0.00 0.12 0.00 93 1016.6
20171117103347 45 58 0.0 0.0 0.00 0.22 0.00 93 1016.3
20171117101846 46 58 0.0 0.0 0.00 0.22 0.00 93 1016.1
20171117100317 46 58 0.0 0.0 0.00 0.22 0.00 93 1016.0
20171117095103 46 58 0.0 1.0 0.00 0.27 0.00 93 1015.7
20171117085732 48 113 0.0 0.0 0.00 0.34 0.00 93 1015.1
20171117083313 48 113 0.0 0.0 0.00 0.34 0.00 93 1015.0
20171117082549 48 113 0.0 0.0 0.00 0.34 0.00 93 1014.8
20171117074809 50 124 0.0 0.0 0.00 0.46 0.34 93 1014.1
20171117073247 50 124 0.0 0.0 0.01 0.46 0.34 93 1014.1
20171117071713 51 124 0.0 0.0 0.01 0.46 0.34 93 1013.9
20171117070314 51 124 0.0 0.0 0.01 0.46 0.34 93 1013.8
20171117065035 51 124 0.0 0.0 0.01 0.72 0.34 93 1013.9
20171117063129 51 122 0.0 1.0 0.00 0.71 0.33 93 1013.5
20171117062642 51 134 0.0 0.0 0.00 0.71 0.33 93 1013.6